Previsão horária em Celejow

Hoje, 25 Julho, Domingo

Tempo Temperatura Precipitação Vento Pressão Humidade
00:00 +20°C° 0 mm 3 m/s 752 mmHg 69%
01:00 +20°C° 0 mm 3 m/s 752 mmHg 70%
02:00 +20°C° 0.1 mm 3 m/s 752 mmHg 72%
03:00 +20°C° 0.1 mm 3 m/s 752 mmHg 73%
04:00 +20°C° 0.1 mm 3 m/s 752 mmHg 75%
05:00 +21°C° 0 mm 3 m/s 752 mmHg 72%
06:00 +22°C° 0 mm 4 m/s 752 mmHg 69%
07:00 +22°C° 0 mm 4 m/s 752 mmHg 66%
08:00 +25°C° 0 mm 4 m/s 752 mmHg 60%
09:00 +26°C° 0 mm 5 m/s 752 mmHg 54%
10:00 +28°C° 0 mm 5 m/s 752 mmHg 48%
11:00 +29°C° 0 mm 5 m/s 752 mmHg 44%
12:00 +30°C° 0 mm 5 m/s 752 mmHg 40%
13:00 +32°C° 0 mm 5 m/s 752 mmHg 36%
14:00 +32°C° 0 mm 4 m/s 752 mmHg 38%
15:00 +30°C° 0 mm 4 m/s 752 mmHg 41%
16:00 +29°C° 0 mm 4 m/s 752 mmHg 43%
17:00 +28°C° 0 mm 3 m/s 752 mmHg 48%
18:00 +27°C° 0 mm 3 m/s 752 mmHg 53%
19:00 +25°C° 0 mm 3 m/s 752 mmHg 58%
20:00 +24°C° 0.1 mm 2 m/s 752 mmHg 61%
21:00 +24°C° 0.1 mm 2 m/s 752 mmHg 64%
22:00 +23°C° 0.1 mm 2 m/s 752 mmHg 67%
23:00 +22°C° 0 mm 3 m/s 752 mmHg 66%

Amanhã, 26 Julho, Segunda-feira

Tempo Temperatura Precipitação Vento Pressão Humidade
00:00 +22°C° 0 mm 3 m/s 752 mmHg 66%
01:00 +22°C° 0 mm 4 m/s 752 mmHg 65%
02:00 +22°C° 0 mm 4 m/s 751 mmHg 65%
03:00 +22°C° 0 mm 5 m/s 751 mmHg 65%
04:00 +22°C° 0 mm 5 m/s 751 mmHg 66%
05:00 +22°C° 0 mm 5 m/s 751 mmHg 65%
06:00 +23°C° 0 mm 5 m/s 751 mmHg 64%
07:00 +23°C° 0 mm 5 m/s 751 mmHg 63%
08:00 +25°C° 0 mm 5 m/s 751 mmHg 62%
09:00 +26°C° 0 mm 5 m/s 751 mmHg 61%
10:00 +26°C° 0 mm 5 m/s 751 mmHg 60%
11:00 +27°C° 0.1 mm 5 m/s 751 mmHg 58%
12:00 +28°C° 0.1 mm 5 m/s 751 mmHg 57%
13:00 +28°C° 0.1 mm 5 m/s 751 mmHg 55%
14:00 +29°C° 0.5 mm 5 m/s 750 mmHg 56%
15:00 +29°C° 0.5 mm 5 m/s 749 mmHg 57%
16:00 +29°C° 0.5 mm 5 m/s 749 mmHg 58%
17:00 +27°C° 4.9 mm 4 m/s 749 mmHg 69%
18:00 +25°C° 4.9 mm 3 m/s 749 mmHg 81%
19:00 +23°C° 4.9 mm 2 m/s 749 mmHg 93%
20:00 +21°C° 2.9 mm 3 m/s 750 mmHg 94%
21:00 +21°C° 2.9 mm 3 m/s 750 mmHg 95%
22:00 +20°C° 2.9 mm 3 m/s 750 mmHg 97%
23:00 +20°C° 0 mm 2 m/s 750 mmHg 96%

Depois de amanhã, 27 Julho, Terça-feira

Tempo Temperatura Precipitação Vento Pressão Humidade
00:00 +20°C° 0 mm 2 m/s 750 mmHg 96%
01:00 +20°C° 0 mm 2 m/s 750 mmHg 96%
02:00 +19°C° 0 mm 2 m/s 750 mmHg 95%
03:00 +19°C° 0 mm 2 m/s 750 mmHg 95%
04:00 +19°C° 0 mm 2 m/s 750 mmHg 94%
05:00 +21°C° 0 mm 2 m/s 750 mmHg 89%
06:00 +23°C° 0 mm 2 m/s 750 mmHg 85%
07:00 +24°C° 0 mm 2 m/s 750 mmHg 80%
08:00 +24°C° 0 mm 2 m/s 750 mmHg 81%
09:00 +24°C° 0 mm 2 m/s 751 mmHg 81%
10:00 +24°C° 0 mm 3 m/s 751 mmHg 82%
11:00 +24°C° 0.1 mm 3 m/s 751 mmHg 80%
12:00 +25°C° 0.1 mm 4 m/s 751 mmHg 77%
13:00 +25°C° 0.1 mm 4 m/s 751 mmHg 75%
14:00 +25°C° 0.1 mm 4 m/s 752 mmHg 73%
15:00 +25°C° 0.1 mm 4 m/s 752 mmHg 71%
16:00 +26°C° 0.1 mm 3 m/s 752 mmHg 69%
17:00 +25°C° 0 mm 3 m/s 752 mmHg 71%
18:00 +24°C° 0 mm 2 m/s 751 mmHg 73%
19:00 +23°C° 0 mm 1 m/s 751 mmHg 74%
20:00 +23°C° 0 mm 1 m/s 752 mmHg 76%
21:00 +21°C° 0 mm 2 m/s 752 mmHg 78%
22:00 +20°C° 0 mm 2 m/s 752 mmHg 81%
23:00 +20°C° 0 mm 2 m/s 752 mmHg 81%

28 Julho, Quarta-feira

Tempo Temperatura Precipitação Vento Pressão Humidade
00:00 +20°C° 0 mm 2 m/s 752 mmHg 82%
01:00 +19°C° 0 mm 2 m/s 752 mmHg 83%
02:00 +19°C° 0 mm 2 m/s 752 mmHg 85%
03:00 +19°C° 0 mm 2 m/s 752 mmHg 86%
04:00 +19°C° 0 mm 2 m/s 752 mmHg 87%
05:00 +20°C° 0 mm 3 m/s 752 mmHg 82%
06:00 +22°C° 0 mm 3 m/s 752 mmHg 77%
07:00 +24°C° 0 mm 3 m/s 752 mmHg 72%
08:00 +26°C° 0 mm 3 m/s 752 mmHg 65%
09:00 +28°C° 0 mm 3 m/s 752 mmHg 59%
10:00 +29°C° 0 mm 3 m/s 752 mmHg 53%
11:00 +30°C° 0 mm 3 m/s 752 mmHg 50%
12:00 +31°C° 0 mm 3 m/s 751 mmHg 46%
13:00 +33°C° 0 mm 3 m/s 751 mmHg 43%
14:00 +31°C° 0 mm 2 m/s 751 mmHg 43%
15:00 +31°C° 0 mm 1 m/s 751 mmHg 43%
16:00 +31°C° 0 mm 1 m/s 751 mmHg 43%
17:00 +30°C° 0 mm 1 m/s 750 mmHg 49%
18:00 +28°C° 0 mm 1 m/s 750 mmHg 54%
19:00 +27°C° 0 mm 2 m/s 750 mmHg 59%
20:00 +26°C° 0 mm 2 m/s 750 mmHg 61%
21:00 +25°C° 0 mm 2 m/s 750 mmHg 63%
22:00 +25°C° 0 mm 2 m/s 750 mmHg 65%
23:00 +24°C° 0.1 mm 2 m/s 750 mmHg 70%

29 Julho, Quinta-feira

Tempo Temperatura Precipitação Vento Pressão Humidade
00:00 +23°C° 0.1 mm 2 m/s 750 mmHg 75%
01:00 +21°C° 0.1 mm 2 m/s 750 mmHg 80%
02:00 +20°C° 0 mm 2 m/s 751 mmHg 83%
03:00 +19°C° 0 mm 3 m/s 751 mmHg 86%
04:00 +18°C° 0 mm 4 m/s 751 mmHg 89%
05:00 +20°C° 0 mm 4 m/s 751 mmHg 85%
06:00 +21°C° 0 mm 4 m/s 752 mmHg 80%
07:00 +22°C° 0 mm 4 m/s 752 mmHg 75%
08:00 +23°C° 0 mm 4 m/s 752 mmHg 69%
09:00 +26°C° 0 mm 3 m/s 752 mmHg 63%
10:00 +27°C° 0 mm 3 m/s 752 mmHg 57%
11:00 +28°C° 0 mm 3 m/s 752 mmHg 53%
12:00 +29°C° 0 mm 3 m/s 752 mmHg 49%
13:00 +30°C° 0 mm 3 m/s 752 mmHg 45%
14:00 +30°C° 0 mm 3 m/s 752 mmHg 43%
15:00 +30°C° 0 mm 3 m/s 752 mmHg 42%
16:00 +30°C° 0 mm 3 m/s 751 mmHg 41%
17:00 +29°C° 0 mm 2 m/s 751 mmHg 47%
18:00 +27°C° 0 mm 1 m/s 751 mmHg 52%
19:00 +26°C° 0 mm 1 m/s 751 mmHg 58%
20:00 +25°C° 0 mm 1 m/s 751 mmHg 58%
21:00 +25°C° 0 mm 2 m/s 751 mmHg 59%
22:00 +24°C° 0 mm 3 m/s 751 mmHg 59%
23:00 +22°C° 0.1 mm 3 m/s 751 mmHg 64%

30 Julho, Sexta-feira

Tempo Temperatura Precipitação Vento Pressão Humidade
00:00 +21°C° 0.1 mm 2 m/s 751 mmHg 68%
01:00 +21°C° 0.1 mm 2 m/s 751 mmHg 72%
02:00 +21°C° 0.5 mm 2 m/s 751 mmHg 77%
03:00 +21°C° 0.5 mm 1 m/s 751 mmHg 81%
04:00 +21°C° 0.5 mm 1 m/s 751 mmHg 86%
05:00 +22°C° 0.5 mm 1 m/s 751 mmHg 84%
06:00 +23°C° 0.5 mm 1 m/s 751 mmHg 82%
07:00 +23°C° 0.5 mm 1 m/s 751 mmHg 80%
08:00 +25°C° 0 mm 1 m/s 751 mmHg 74%
09:00 +27°C° 0 mm 2 m/s 751 mmHg 67%
10:00 +28°C° 0 mm 2 m/s 751 mmHg 60%
11:00 +29°C° 0 mm 2 m/s 750 mmHg 57%
12:00 +30°C° 0 mm 2 m/s 750 mmHg 54%
13:00 +31°C° 0 mm 3 m/s 750 mmHg 51%
14:00 +30°C° 0 mm 3 m/s 750 mmHg 54%
15:00 +30°C° 0 mm 3 m/s 749 mmHg 57%
16:00 +29°C° 0 mm 3 m/s 749 mmHg 60%
17:00 +28°C° 0 mm 2 m/s 749 mmHg 65%
18:00 +27°C° 0 mm 2 m/s 749 mmHg 69%
19:00 +25°C° 0 mm 2 m/s 749 mmHg 74%
20:00 +24°C° 1 mm 2 m/s 749 mmHg 79%
21:00 +23°C° 1 mm 2 m/s 749 mmHg 85%
22:00 +21°C° 1 mm 2 m/s 749 mmHg 90%
23:00 +20°C° 0.8 mm 2 m/s 749 mmHg 91%
Mostrar mais

Necessitamos do seu Consentimento

A Meteoprog e os seus Fornecedores de Serviços podem armazenar e aceder a dados pessoais como cookies, identificadores do dispositivo ou outras tecnologias semelhantes existentes no seu dispositivo e processar estes dados para personalizar conteúdos e anúncios, assim como funcionalidades nas redes sociais e análise de tráfego.

  • Armazenar e/ou aceder a informações no seu dispositivo

    Os cookies, identificadores do dispositivo ou outras informações podem ser armazenados ou acedidos no seu dispositivo, para os fins acima indicados.

  • Anúncios e conteúdos personalizados, medição de anúncios e conteúdos, dados sobre o público-alvo e desenvolvimento de produtos

    Os anúncios e os conteúdos podem ser personalizados com base num perfil. Podem ser adicionados dados adicionais para uma maior personalização dos anúncios e dos conteúdos. A eficácia dos anúncios e dos conteúdos pode ser medida. Podem ser obtidas informações sobre o público que visualizou os anúncios e os conteúdos. Estes dados podem ser usados para desenvolver ou melhorar sistemas, softwares ou a experiência do utilizador.

Ao clicar em "Eu concordo”, permitirá o uso de cookies, identificadores do dispositivo e web beacons mencionados ou outras tecnologias semelhantes. As configurações do navegador do seu dispositivo podem ser alteradas.

Para certos fins, podem ser invocados interesses legítimos ao invés de consentimento. Pode ler mais informação sobre este assunto na nossa Política de Privacidade e Cookies.